Wind_Speed
11 11 11 11 12 12 11 11 12 13 14 15 14 15 15 16 17 17 18 19 20 21 21 21 21 21 22 22 22 21 21 21 21 21 20 20 20 19 19 18 18 18 18 19
9 9 9 10 10 10 10 10 11 12 14 14 14 15 15 16 16 17 18 19 20 20 20 20 20 20 20 20 20 20 20 19 18 18 18 17 17 16 16 16 16 16 15 16
8 8 8 9 9 9 10 10 11 13 13 14 14 15 15 16 17 18 18 19 19 19 20 20 20 20 19 18 18 17 16 15 15 15 15 15 15 14 14 14 14 14 14 14
7 7 8 9 9 9 10 11 12 13 13 14 14 15 16 16 17 18 18 18 18 18 18 18 17 16 16 16 16 15 14 14 14 14 14 14 13 12 12 12 12 13 12 12
7 8 9 9 9 10 11 12 12 12 13 13 14 14 15 15 16 16 16 17 17 17 16 15 15 15 15 14 13 13 13 13 13 13 13 12 12 10 9 10 11 10 11 11
7 8 9 9 9 9 10 10 10 11 12 12 13 14 14 14 14 15 15 15 14 14 14 13 12 13 12 11 12 12 11 11 11 11 11 11 10 8 8 8 9 9 10 9
7 8 9 9 9 9 9 10 10 11 11 13 13 13 13 13 13 13 13 13 13 12 11 10 10 10 10 9 10 10 9 9 9 10 10 9 7 6 6 7 7 8 8 8
7 8 9 9 9 9 9 9 10 11 12 12 12 11 12 12 11 11 11 11 10 9 8 8 8 8 8 8 8 7 7 7 7 8 7 6 6 6 6 7 7 6 7 7
7 8 8 9 9 9 9 9 9 10 10 11 11 11 11 11 10 10 9 8 8 7 6 6 7 7 6 6 5 6 5 6 6 6 6 5 5 6 6 6 6 6 6 7
6 7 7 8 8 8 8 8 8 9 9 9 9 10 9 9 8 8 7 6 5 5 4 5 6 6 5 5 5 4 4 5 5 6 7 7 6 6 6 6 6 6 6 7
5 6 7 7 6 6 6 7 8 8 8 8 9 9 8 6 6 5 4 4 4 4 4 5 6 6 5 5 4 3 4 5 6 6 7 7 7 7 7 7 7 7 7 7
4 5 5 5 5 6 6 6 7 7 7 7 8 7 6 5 4 3 3 3 3 3 4 5 5 4 4 3 3 3 4 5 5 6 7 8 8 9 9 8 8 8 8 9
4 4 4 4 4 5 5 6 6 6 6 6 6 6 5 4 3 2 2 3 3 3 4 5 5 4 4 4 4 4 5 5 6 6 7 8 8 9 9 9 10 10 10 10
3 3 3 4 4 4 5 5 5 5 5 5 5 4 5 4 3 3 3 3 3 4 4 5 5 5 5 5 4 5 5 6 6 6 7 7 8 9 9 10 10 10 10 10
3 3 3 3 3 4 4 5 4 4 5 5 5 4 4 4 4 4 4 4 5 5 5 5 5 6 6 6 6 6 6 5 6 6 6 7 7 8 9 9 9 9 9 9
3 3 3 3 3 4 4 5 4 4 4 5 5 4 4 4 4 4 4 5 5 6 6 6 5 5 6 6 6 6 6 6 5 5 6 7 7 7 7 7 7 7 8 8
2 3 3 3 3 3 4 5 4 4 4 4 4 4 4 4 4 4 4 4 5 5 6 5 5 4 4 5 5 5 5 5 5 5 5 6 6 6 6 6 6 6 6 6
2 3 3 3 3 3 4 4 4 4 4 4 4 4 4 4 4 4 3 3 4 4 5 5 5 4 4 4 4 4 4 4 5 5 5 4 4 4 4 4 4 4 4 5
2 3 3 3 3 3 4 4 4 4 3 3 4 4 4 4 4 4 3 3 4 4 4 4 4 4 4 4 4 4 4 4 3 3 3 2 2 2 2 2 2 2 2 3
2 3 3 3 3 3 4 4 4 3 2 3 3 3 3 3 3 3 3 3 3 3 4 4 4 4 4 4 4 3 3 3 3 2 2 1 1 1 1 1 1 1 1 1
2 3 3 3 3 3 3 3 3 3 2 2 2 2 2 2 2 2 3 3 3 3 3 3 3 3 3 3 3 2 2 2 2 2 1 1 1 1 2 2 2 2 3 3
2 2 2 2 3 3 3 3 3 3 2 2 2 2 2 2 3 3 3 3 3 3 3 3 3 3 3 3 3 3 4 4 3 3 3 4 4 4 4 4 4 4 4 5
2 2 2 2 2 2 3 3 3 3 3 3 3 3 3 3 3 4 4 4 4 4 4 4 4 4 4 4 4 5 5 5 5 5 5 6 6 6 6 6 6 6 7 7
3 3 2 2 2 2 2 2 2 2 3 3 4 4 4 4 4 4 4 4 4 4 4 4 4 4 4 5 5 5 6 6 6 7 7 7 8 8 9 9 9 9 10 11
4 4 3 3 3 3 3 3 3 3 3 4 4 4 5 5 5 6 6 5 5 5 5 5 6 6 6 6 7 7 8 8 8 9 9 9 10 11 11 12 12 13 13 14
5 5 4 4 4 5 5 4 4 5 5 5 5 5 6 6 6 7 7 7 7 8 8 8 8 8 9 9 9 10 10 11 11 11 12 12 13 13 14 15 15 16 16 17
6 6 6 5 5 6 6 6 6 6 6 7 7 7 7 8 8 8 8 9 9 10 10 10 10 10 11 11 12 12 13 14 14 14 14 15 16 16 17 17 18 18 18 18
Wind_Direction
229 238 243 245 246 248 249 256 265 270 273 277 276 279 283 286 287 288 291 291 293 294 295 296 297 297 295 297 297 297 297 298 298 298 298 300 300 300 300 298 297 298 297 295
236 239 240 242 242 244 254 259 265 269 273 278 279 281 284 287 290 290 291 292 293 294 295 295 296 298 297 297 297 296 296 298 300 302 302 302 301 302 305 306 304 302 301 302
236 237 242 248 245 249 256 260 267 271 276 279 285 288 287 290 293 293 293 295 295 295 295 296 295 296 298 296 296 296 297 301 305 305 306 305 304 306 308 310 307 304 305 308
235 238 248 253 254 261 265 267 271 276 280 284 288 290 290 292 294 294 295 297 296 295 296 297 297 297 299 297 296 298 300 302 304 307 307 305 304 307 308 308 309 311 314 315
243 250 258 260 263 270 273 274 277 282 287 290 290 291 292 295 298 298 297 298 299 296 297 297 297 299 300 297 298 302 301 305 307 312 313 311 310 310 311 314 317 319 320 324
249 254 263 266 272 277 279 278 282 285 291 295 295 295 295 297 299 300 302 302 302 300 300 301 300 301 302 301 301 300 301 304 307 313 319 321 320 321 321 323 325 326 328 330
257 261 265 270 274 278 280 287 288 289 294 299 298 298 299 299 299 301 304 308 307 303 301 303 304 304 304 305 308 309 311 317 317 319 322 325 328 332 334 335 336 338 338 341
265 269 271 276 279 284 289 290 289 291 298 305 303 300 302 303 304 304 306 310 313 311 310 311 313 311 313 311 318 325 329 330 331 333 333 338 348 352 353 351 348 355 4 10
265 268 277 279 282 287 292 294 294 296 304 310 309 307 307 307 306 306 309 310 313 322 328 331 328 324 325 322 325 335 344 349 349 355 2 6 7 10 12 15 20 24 32 35
272 276 279 281 283 287 294 299 302 303 307 313 316 315 313 313 313 313 310 314 322 331 337 347 354 357 0 356 354 355 6 13 15 18 22 27 28 27 28 36 43 49 53 52
281 287 285 280 282 290 301 307 310 314 318 323 325 325 324 325 327 329 333 343 349 346 347 353 360 7 16 26 33 36 37 32 33 37 43 43 42 44 49 54 58 63 62 58
287 292 287 284 288 299 311 316 322 325 326 329 335 338 338 342 345 352 8 14 10 8 5 6 9 18 23 34 59 63 45 44 52 57 54 52 49 52 58 64 68 67 66 67
292 294 296 297 301 309 320 329 335 338 340 342 347 352 355 355 359 14 36 38 39 36 29 26 38 45 48 49 57 62 60 63 66 63 57 51 51 55 61 67 72 75 75 76
301 307 312 312 316 324 331 338 342 348 351 352 354 359 7 17 29 42 39 35 39 40 41 46 59 55 50 49 57 60 60 64 68 67 63 60 61 66 70 71 72 73 76 79
330 333 333 334 334 343 350 355 357 2 8 9 10 18 33 42 44 49 56 57 55 50 49 53 65 63 61 64 69 73 71 71 71 70 69 69 70 73 75 74 76 76 75 76
353 353 355 352 350 0 7 9 8 10 16 18 20 33 48 56 54 56 62 63 59 55 55 59 65 64 67 68 70 69 67 69 71 73 76 78 78 78 77 76 78 79 76 75
12 9 1 354 351 356 4 7 10 17 21 20 27 36 46 55 56 54 57 55 50 49 50 52 58 64 65 58 58 60 59 61 66 75 81 84 84 81 79 77 76 77 77 74
20 10 357 344 339 348 0 8 17 25 31 32 36 47 54 59 56 56 57 51 47 46 45 46 50 54 54 54 58 59 60 62 68 77 84 86 85 85 84 79 78 75 72 69
3 2 6 6 4 3 8 13 17 19 28 32 37 51 63 68 57 51 51 49 50 47 43 43 48 50 51 54 57 59 63 67 71 72 73 74 75 80 83 80 78 72 63 60
355 356 358 3 7 7 8 11 13 18 30 33 35 44 56 57 51 47 45 43 44 38 38 39 40 43 47 50 52 58 63 66 63 59 57 54 50 47 26 358 348 357 357 360
341 344 348 360 5 6 9 12 16 22 33 36 31 33 33 33 31 25 16 14 18 18 17 18 21 24 26 25 21 23 23 17 4 353 345 333 321 321 319 311 304 307 310 307
317 326 329 343 353 358 4 10 14 18 21 17 13 16 16 12 0 351 348 350 355 354 350 349 350 353 356 354 348 336 330 326 318 311 306 302 296 293 295 295 291 290 294 297
289 305 307 320 340 351 360 8 13 16 13 5 359 0 357 348 345 340 336 335 334 330 329 327 324 321 321 325 324 321 318 313 307 301 299 298 296 292 289 288 288 285 287 290
267 279 282 286 305 327 341 350 355 -0 360 354 349 346 342 337 335 334 333 331 327 322 321 320 316 310 306 310 313 311 309 307 305 300 296 295 294 292 291 290 288 286 285 286
259 264 265 267 274 290 303 312 319 321 320 324 328 330 328 325 323 323 322 319 315 312 312 311 307 303 300 300 301 301 302 303 303 300 296 293 291 291 291 291 292 290 288 286
253 258 261 266 272 279 285 288 291 296 297 298 303 308 312 313 313 312 310 309 308 307 305 303 302 299 296 296 296 295 296 296 297 297 295 293 291 291 290 289 289 290 289 288
250 256 261 266 272 276 280 282 285 287 287 288 289 292 295 299 301 301 300 300 301 301 301 300 299 298 297 296 296 294 294 293 293 292 292 290 289 289 289 288 289 288 287 287
Height
5807 5808 5808 5809 5809 5810 5810 5811 5812 5811 5810 5809 5808 5807 5806 5805 5804 5802 5800 5798 5796 5793 5791 5788 5786 5783 5781 5778 5775 5772 5769 5767 5764 5761 5759 5757 5754 5752 5750 5748 5746 5744 5742 5740
5805 5805 5805 5806 5806 5807 5807 5808 5808 5807 5806 5805 5804 5803 5802 5801 5799 5797 5795 5793 5790 5788 5785 5783 5781 5778 5775 5773 5770 5767 5765 5762 5759 5757 5754 5752 5750 5748 5746 5744 5742 5740 5738 5736
5803 5804 5804 5804 5804 5804 5805 5804 5804 5804 5803 5801 5800 5798 5797 5796 5794 5792 5790 5787 5785 5782 5780 5777 5775 5773 5770 5767 5765 5763 5760 5758 5755 5753 5751 5749 5747 5745 5743 5741 5739 5737 5735 5733
5801 5802 5802 5804 5802 5802 5801 5801 5800 5799 5799 5797 5796 5794 5793 5791 5789 5786 5784 5782 5779 5777 5775 5772 5770 5768 5765 5763 5761 5759 5757 5754 5752 5750 5748 5746 5744 5742 5740 5739 5737 5735 5733 5730
5799 5799 5800 5800 5799 5799 5798 5798 5797 5796 5795 5793 5791 5790 5788 5786 5784 5781 5779 5777 5774 5772 5770 5768 5765 5763 5761 5759 5757 5756 5754 5752 5750 5748 5745 5743 5741 5740 5738 5736 5734 5733 5731 5728
5797 5797 5797 5798 5797 5796 5796 5794 5794 5792 5791 5789 5787 5786 5784 5781 5779 5777 5775 5773 5770 5768 5765 5763 5761 5759 5757 5756 5754 5752 5751 5749 5747 5745 5743 5742 5740 5738 5736 5735 5733 5731 5729 5727
5794 5794 5794 5794 5793 5793 5794 5793 5790 5788 5787 5785 5783 5782 5780 5777 5775 5773 5771 5769 5766 5764 5762 5760 5758 5756 5755 5753 5751 5750 5748 5747 5745 5744 5742 5740 5739 5737 5736 5734 5732 5730 5728 5726
5792 5792 5793 5791 5790 5790 5790 5787 5786 5785 5783 5781 5779 5777 5775 5773 5771 5769 5767 5765 5763 5761 5759 5758 5756 5754 5752 5751 5749 5748 5747 5746 5744 5743 5741 5740 5738 5737 5735 5733 5732 5730 5729 5727
5790 5791 5789 5788 5787 5787 5785 5784 5783 5782 5780 5778 5776 5774 5771 5769 5767 5766 5764 5762 5761 5759 5757 5756 5754 5752 5751 5750 5748 5747 5746 5745 5744 5743 5741 5740 5739 5737 5735 5734 5732 5731 5729 5728
5787 5786 5786 5785 5784 5784 5783 5782 5780 5779 5777 5775 5773 5771 5768 5766 5765 5763 5761 5760 5759 5758 5757 5755 5753 5752 5750 5749 5748 5747 5746 5745 5744 5743 5742 5740 5739 5737 5736 5734 5733 5732 5731 5730
5785 5784 5783 5782 5782 5781 5780 5779 5778 5776 5774 5772 5770 5768 5766 5764 5762 5761 5760 5759 5758 5757 5756 5755 5754 5752 5751 5750 5749 5748 5747 5746 5745 5744 5743 5742 5740 5738 5737 5736 5735 5734 5733 5732
5783 5782 5781 5781 5779 5779 5778 5777 5775 5774 5772 5770 5768 5766 5764 5763 5761 5760 5759 5758 5758 5757 5756 5755 5753 5752 5751 5750 5749 5748 5748 5747 5746 5745 5744 5743 5742 5740 5739 5738 5737 5736 5735 5734
5781 5780 5779 5779 5778 5777 5776 5775 5773 5772 5770 5768 5767 5765 5764 5762 5761 5760 5759 5759 5758 5757 5756 5755 5754 5753 5752 5751 5750 5749 5749 5748 5748 5747 5746 5745 5743 5742 5741 5740 5739 5738 5738 5737
5779 5779 5778 5777 5776 5775 5774 5773 5772 5770 5769 5767 5766 5765 5763 5762 5761 5760 5760 5759 5759 5758 5757 5756 5755 5754 5753 5752 5751 5751 5750 5750 5749 5748 5748 5747 5746 5745 5744 5743 5742 5741 5741 5740
5779 5778 5777 5776 5775 5774 5773 5772 5771 5769 5768 5767 5765 5764 5763 5762 5761 5761 5760 5760 5759 5758 5758 5757 5756 5755 5754 5754 5753 5752 5752 5751 5750 5750 5749 5748 5748 5747 5746 5746 5745 5744 5744 5743
5778 5777 5776 5775 5775 5774 5773 5771 5770 5769 5768 5767 5765 5764 5764 5763 5762 5762 5761 5761 5760 5759 5759 5758 5757 5757 5756 5755 5754 5754 5753 5753 5752 5751 5750 5750 5750 5749 5749 5748 5748 5747 5746 5746
5778 5777 5776 5775 5774 5773 5772 5771 5770 5769 5768 5767 5766 5765 5764 5764 5763 5763 5762 5762 5761 5760 5760 5759 5758 5757 5757 5756 5755 5755 5754 5754 5753 5752 5752 5752 5751 5751 5750 5750 5749 5749 5749 5748
5777 5776 5775 5774 5773 5772 5772 5771 5770 5769 5768 5767 5766 5766 5765 5764 5764 5764 5763 5763 5762 5761 5760 5760 5759 5758 5758 5757 5757 5756 5755 5755 5754 5754 5754 5753 5753 5752 5752 5752 5751 5751 5750 5750
5776 5776 5775 5774 5773 5772 5771 5771 5770 5769 5769 5768 5767 5767 5766 5766 5765 5765 5764 5763 5762 5762 5761 5761 5760 5759 5759 5758 5757 5757 5756 5756 5755 5755 5755 5754 5754 5753 5753 5752 5752 5751 5751 5750
5776 5775 5774 5773 5773 5772 5771 5771 5770 5769 5769 5768 5768 5767 5767 5767 5766 5765 5765 5764 5763 5763 5762 5761 5760 5760 5759 5759 5758 5758 5757 5757 5756 5756 5756 5755 5754 5754 5753 5753 5752 5752 5751 5751
5775 5775 5774 5773 5773 5772 5771 5771 5770 5770 5769 5769 5768 5768 5768 5767 5767 5766 5765 5764 5764 5763 5762 5761 5761 5760 5760 5759 5759 5758 5758 5757 5757 5756 5756 5755 5755 5754 5753 5753 5752 5751 5751 5750
5775 5774 5774 5773 5773 5772 5771 5771 5770 5770 5769 5769 5768 5768 5768 5767 5766 5766 5765 5765 5764 5763 5762 5761 5761 5760 5760 5759 5759 5758 5758 5757 5756 5756 5755 5754 5754 5753 5752 5752 5751 5750 5750 5749
5774 5773 5773 5772 5772 5772 5771 5771 5770 5770 5769 5769 5768 5768 5767 5767 5766 5765 5765 5764 5763 5763 5762 5761 5761 5760 5759 5759 5758 5757 5757 5756 5755 5755 5754 5753 5752 5752 5751 5750 5749 5749 5748 5747
5772 5772 5772 5771 5771 5771 5771 5770 5770 5769 5769 5769 5768 5767 5767 5766 5765 5764 5764 5763 5762 5762 5761 5760 5759 5759 5758 5757 5757 5756 5755 5755 5754 5753 5752 5751 5751 5750 5749 5748 5747 5746 5745 5745
5771 5771 5771 5770 5770 5770 5770 5769 5769 5769 5768 5768 5767 5767 5766 5765 5764 5764 5763 5762 5761 5760 5760 5759 5758 5757 5756 5756 5755 5754 5753 5752 5752 5751 5750 5749 5748 5747 5746 5745 5744 5743 5742 5741
5769 5769 5769 5769 5769 5769 5768 5768 5768 5767 5767 5766 5766 5765 5764 5764 5763 5762 5761 5761 5760 5759 5758 5757 5756 5755 5754 5753 5752 5751 5750 5750 5749 5747 5746 5745 5744 5743 5742 5741 5739 5738 5737 5736
5767 5767 5767 5767 5767 5767 5767 5766 5766 5766 5765 5765 5764 5763 5763 5762 5761 5760 5759 5758 5757 5756 5755 5754 5753 5752 5751 5750 5749 5748 5747 5745 5744 5743 5742 5740 5739 5738 5737 5735 5734 5733 5731 5730